N5SOR-2 Weather Reports


time (UTC)temp
C
wind
direction
speed
KPH
gust
KPH
rain 1hr
cm
rain 24hr
cm
rain mn
cm
humidity
%
barometer
mb
20210414102750 8 359 17.7 25.7 0.00 0.00 0.00 92 1019.9
20210414101039 8 359 20.9 27.4 0.00 0.00 0.00 91 1019.9
20210414095924 7 359 20.9 30.6 0.00 0.00 0.00 92 1019.9
20210414094436 7 359 16.1 27.4 0.00 0.00 0.00 92 1020.0
20210414093135 6 359 11.3 20.9 0.00 0.00 0.00 92 1020.1
20210414092045 6 359 16.1 25.7 0.00 0.00 0.00 92 1020.1
20210414090533 7 359 19.3 25.7 0.00 0.00 0.00 92 1020.0
20210414085651 8 359 27.4 38.6 0.00 0.00 0.00 92 1020.0
20210414083932 7 359 25.7 35.4 0.00 0.00 0.00 92 1019.9
20210414082759 7 359 17.7 32.2 0.00 0.00 0.00 92 1020.3
20210414081330 7 359 12.9 25.7 0.00 0.00 0.00 91 1020.5
20210414080052 7 359 12.9 20.9 0.00 0.00 0.00 91 1020.7
20210414074856 7 359 16.1 20.9 0.00 0.00 0.00 90 1020.8
20210414073446 7 359 19.3 32.2 0.00 0.00 0.00 88 1020.8
20210414072548 7 359 17.7 22.5 0.00 0.00 0.00 83 1020.8
20210414065906 8 359 12.9 20.9 0.00 0.00 0.00 70 1020.8
20210414064225 8 359 12.9 17.7 0.00 0.00 0.00 69 1020.9
20210414062948 9 359 17.7 30.6 0.00 0.00 0.00 69 1020.6
20210414061624 7 359 12.9 17.7 0.00 0.00 0.00 73 1020.7
20210414060419 7 359 16.1 22.5 0.00 0.00 0.00 71 1020.5
20210414055238 7 359 17.7 27.4 0.00 0.00 0.00 72 1020.4
20210414053727 7 359 14.5 19.3 0.00 0.00 0.00 71 1020.4
20210414052824 7 359 14.5 17.7 0.00 0.00 0.00 70 1020.4
20210414051120 6 359 9.7 16.1 0.00 0.00 0.00 74 1020.3
20210414050150 6 359 9.7 14.5 0.00 0.00 0.00 75 1020.3
20210414044521 5 359 8.0 9.7 0.00 0.00 0.00 76 1020.0
20210414043239 5 359 1.6 9.7 0.00 0.00 0.00 76 1020.1
20210414042108 5 359 3.2 9.7 0.00 0.00 0.00 75 1019.8
20210414040659 5 359 0.0 6.4 0.00 0.00 0.00 75 1019.9
20210414035914 5 359 0.0 0.0 0.00 0.00 0.00 74 1019.9
20210414034026 6 359 3.2 8.0 0.00 0.00 0.00 74 1019.7
20210414033222 6 359 1.6 9.7 0.00 0.00 0.00 75 1019.6
20210414031423 6 359 3.2 16.1 0.00 0.00 0.00 74 1019.5
20210414030141 6 359 3.2 14.5 0.00 0.00 0.00 74 1019.4
20210414024918 6 359 3.2 8.0 0.00 0.00 0.00 74 1019.3
20210414023523 6 359 3.2 9.7 0.00 0.00 0.00 74 1019.0
20210414022739 6 359 1.6 8.0 0.00 0.00 0.00 74 1018.9
20210414020911 6 359 0.0 6.4 0.00 0.00 0.00 72 1018.8
20210414020000 6 359 0.0 3.2 0.00 0.00 0.00 70 1018.9
20210414014313 7 359 0.0 0.0 0.00 0.00 0.00 70 1018.8
20210414011707 7 359 0.0 4.8 0.00 0.00 0.00 67 1017.9
20210414010414 8 359 0.0 4.8 0.00 0.00 0.00 65 1018.1
20210414005933 8 359 0.0 3.2 0.00 0.00 0.00 63 1018.1
20210414003833 9 359 0.0 1.6 0.00 0.00 0.00 60 1018.2
20210414001216 11 359 0.0 0.0 0.00 0.00 0.00 54 1018.2
20210413234602 11 359 0.0 1.6 0.00 0.00 0.00 53 1018.3
20210413233306 11 359 0.0 3.2 0.00 0.00 0.00 52 1018.3
20210413232258 11 359 0.0 3.2 0.00 0.00 0.00 53 1018.2
20210413230708 11 359 0.0 3.2 0.00 0.00 0.00 54 1018.1
20210413225923 11 359 0.0 3.2 0.00 0.00 0.00 53 1018.0
20210413224102 11 359 0.0 4.8 0.00 0.00 0.00 52 1017.9
20210413223033 11 359 0.0 4.8 0.00 0.00 0.00 50 1017.9
20210413221456 11 359 0.0 4.8 0.00 0.00 0.00 50 1018.0
20210413220434 11 359 1.6 8.0 0.00 0.00 0.00 51 1018.0
20210413215210 11 359 0.0 14.5 0.00 0.00 0.00 50 1018.2
20210413213554 11 359 0.0 3.2 0.00 0.00 0.00 52 1018.5
20210413212847 11 359 0.0 1.6 0.00 0.00 0.00 51 1018.5
20210413210953 11 359 0.0 8.0 0.00 0.00 0.00 51 1018.6
20210413205855 11 359 0.0 4.8 0.00 0.00 0.00 51 1018.8
20210413204350 10 359 0.0 3.2 0.00 0.00 0.00 55 1019.0
20210413203143 10 359 0.0 6.4 0.00 0.00 0.00 51 1018.9
20210413201922 10 359 0.0 6.4 0.00 0.00 0.00 53 1019.0
20210413200522 9 359 0.0 4.8 0.00 0.00 0.00 53 1019.2
20210413195511 11 359 1.6 14.5 0.00 0.00 0.00 51 1019.4
20210413193850 10 359 1.6 9.7 0.00 0.00 0.00 52 1019.6
20210413192955 9 359 1.6 16.1 0.00 0.00 0.00 54 1019.5
20210413191245 8 359 1.6 6.4 0.00 0.00 0.00 55 1019.5
20210413190105 9 359 1.6 9.7 0.00 0.00 0.00 52 1019.6
20210413184651 10 359 1.6 8.0 0.00 0.00 0.00 52 1019.5
20210413183345 9 359 3.2 12.9 0.00 0.00 0.00 53 1019.5
20210413182337 7 359 3.2 20.9 0.00 0.00 0.00 57 1019.5
20210413180742 7 359 3.2 8.0 0.00 0.00 0.00 58 1019.4
20210413175741 7 359 3.2 14.5 0.00 0.00 0.00 57 1019.7
20210413174141 7 359 3.2 17.7 0.00 0.00 0.00 58 1019.7
20210413173012 7 359 4.8 17.7 0.00 0.00 0.00 58 1020.1
20210413171551 7 359 3.2 14.5 0.00 0.00 0.00 58 1020.2
20210413170249 7 359 4.8 22.5 0.00 0.00 0.00 59 1020.3
20210413165155 7 359 3.2 8.0 0.00 0.00 0.00 60 1020.3
20210413163636 6 359 4.8 12.9 0.00 0.00 0.00 62 1020.1
20210413162941 6 359 3.2 17.7 0.00 0.00 0.00 62 1020.1
20210413161035 5 359 3.2 14.5 0.00 0.00 0.00 64 1019.8
20210413160111 5 359 3.2 16.1 0.00 0.00 0.00 66 1019.8
20210413154433 5 359 3.2 12.9 0.00 0.00 0.00 66 1020.0
20210413153155 3 359 3.2 9.7 0.00 0.00 0.00 69 1019.9
20210413151958 3 359 3.2 8.0 0.00 0.00 0.00 70 1019.8
20210413150100 3 359 4.8 9.7 0.00 0.00 0.00 68 1019.5
20210413143929 3 359 1.6 6.4 0.00 0.00 0.00 68 1019.5
20210413143056 3 359 1.6 6.4 0.00 0.00 0.00 65 1019.3
20210413140145 3 359 3.2 8.0 0.00 0.00 0.00 65 1019.0
20210413134746 3 359 1.6 12.9 0.00 0.00 0.00 65 1018.8
20210413133427 3 359 1.6 6.4 0.00 0.00 0.00 65 1018.5
20210413132732 2 359 1.6 8.0 0.00 0.00 0.00 65 1018.3
20210413130825 2 359 1.6 8.0 0.00 0.00 0.00 65 1018.0
20210413130109 2 359 1.6 9.7 0.00 0.00 0.00 65 1017.7
20210413124228 3 359 1.6 12.9 0.00 0.00 0.00 64 1017.7
20210413121636 3 359 3.2 16.1 0.00 0.00 0.00 64 1017.1
20210413120321 3 359 1.6 6.4 0.00 0.00 0.00 66 1016.7
20210413115931 3 359 1.6 12.9 0.00 0.00 0.00 66 1016.5
20210413113719 3 359 3.2 4.8 0.00 0.00 0.00 65 1016.3
20210413111123 3 359 0.0 8.0 0.00 0.00 0.00 64 1015.7
20210413104528 3 359 1.6 6.4 0.00 0.00 0.00 65 1014.9
20210413103530 3 359 1.6 4.8 0.00 0.00 0.00 65 1014.8